owner,sensor,date,latitude,longitude,air_temperature,qcFlag 
TCOON,ioos:station:TCOON:518:1,2016-11-01T00:12:00Z,29.5150,-94.5133,27.9,1111122 
TCOON,ioos:station:TCOON:518:1,2016-11-01T01:12:00Z,29.5150,-94.5133,28.1,1111122 
TCOON,ioos:station:TCOON:518:1,2016-11-01T02:12:00Z,29.5150,-94.5133,28.2,1111122 
TCOON,ioos:station:TCOON:518:1,2016-11-01T03:12:00Z,29.5150,-94.5133,28.3,1111122 
TCOON,ioos:station:TCOON:518:1,2016-11-01T04:12:00Z,29.5150,-94.5133,28.4,1111122 
TCOON,ioos:station:TCOON:518:1,2016-11-01T05:12:00Z,29.5150,-94.5133,28.5,1111122 
TCOON,ioos:station:TCOON:518:1,2016-11-01T06:12:00Z,29.5150,-94.5133,28.4,1111122 
TCOON,ioos:station:TCOON:518:1,2016-11-01T07:12:00Z,29.5150,-94.5133,28.4,1111122 
TCOON,ioos:station:TCOON:518:1,2016-11-01T08:12:00Z,29.5150,-94.5133,28.4,1111122 
TCOON,ioos:station:TCOON:518:1,2016-11-01T09:12:00Z,29.5150,-94.5133,28.4,1111122 
TCOON,ioos:station:TCOON:518:1,2016-11-01T10:12:00Z,29.5150,-94.5133,28.2,1111122 
TCOON,ioos:station:TCOON:518:1,2016-11-01T11:12:00Z,29.5150,-94.5133,28.2,1111122 
TCOON,ioos:station:TCOON:518:1,2016-11-01T12:12:00Z,29.5150,-94.5133,28.3,1111122 
TCOON,ioos:station:TCOON:518:1,2016-11-01T13:12:00Z,29.5150,-94.5133,28.5,1111122 
TCOON,ioos:station:TCOON:518:1,2016-11-01T14:12:00Z,29.5150,-94.5133,29.4,1111122 
TCOON,ioos:station:TCOON:518:1,2016-11-01T15:12:00Z,29.5150,-94.5133,29.7,1111122 
TCOON,ioos:station:TCOON:518:1,2016-11-01T16:12:00Z,29.5150,-94.5133,29.7,1111122 
TCOON,ioos:station:TCOON:518:1,2016-11-01T17:12:00Z,29.5150,-94.5133,29.7,1111122 
TCOON,ioos:station:TCOON:518:1,2016-11-01T18:12:00Z,29.5150,-94.5133,29.7,1111122 
TCOON,ioos:station:TCOON:518:1,2016-11-01T19:12:00Z,29.5150,-94.5133,29.8,1111122 
TCOON,ioos:station:TCOON:518:1,2016-11-01T20:12:00Z,29.5150,-94.5133,29.8,1111122 
TCOON,ioos:station:TCOON:518:1,2016-11-01T21:12:00Z,29.5150,-94.5133,29.6,1111122 
TCOON,ioos:station:TCOON:518:1,2016-11-01T22:12:00Z,29.5150,-94.5133,29.5,1111122 
TCOON,ioos:station:TCOON:518:1,2016-11-01T23:12:00Z,29.5150,-94.5133,29.3,1111122 
TCOON,ioos:station:TCOON:518:1,2016-11-02T00:12:00Z,29.5150,-94.5133,29.3,1111122 
TCOON,ioos:station:TCOON:518:1,2016-11-02T17:12:00Z,29.5150,-94.5133,29.8,1111122 
TCOON,ioos:station:TCOON:518:1,2016-11-02T18:12:00Z,29.5150,-94.5133,30.2,1111122 
TCOON,ioos:station:TCOON:518:1,2016-11-02T19:12:00Z,29.5150,-94.5133,30.0,1111122 
TCOON,ioos:station:TCOON:518:1,2016-11-02T20:12:00Z,29.5150,-94.5133,30.1,1111122 
TCOON,ioos:station:TCOON:518:1,2016-11-02T21:12:00Z,29.5150,-94.5133,30.2,1111122 
TCOON,ioos:station:TCOON:518:1,2016-11-02T22:12:00Z,29.5150,-94.5133,29.9,1111122 
TCOON,ioos:station:TCOON:518:1,2016-11-02T23:12:00Z,29.5150,-94.5133,29.7,1111122 
TCOON,ioos:station:TCOON:518:1,2016-11-03T00:12:00Z,29.5150,-94.5133,29.5,1111122 
TCOON,ioos:station:TCOON:518:1,2016-11-03T01:18:00Z,29.5150,-94.5133,29.4,1111122 
TCOON,ioos:station:TCOON:518:1,2016-11-03T02:12:00Z,29.5150,-94.5133,29.3,1111122 
TCOON,ioos:station:TCOON:518:1,2016-11-03T03:12:00Z,29.5150,-94.5133,29.3,1111122 
TCOON,ioos:station:TCOON:518:1,2016-11-03T04:12:00Z,29.5150,-94.5133,29.2,1111122 
TCOON,ioos:station:TCOON:518:1,2016-11-03T05:12:00Z,29.5150,-94.5133,29.2,1111122 
TCOON,ioos:station:TCOON:518:1,2016-11-03T06:18:00Z,29.5150,-94.5133,29.2,1111122 
TCOON,ioos:station:TCOON:518:1,2016-11-03T07:12:00Z,29.5150,-94.5133,29.3,1111122 
TCOON,ioos:station:TCOON:518:1,2016-11-03T08:12:00Z,29.5150,-94.5133,29.2,1111122 
TCOON,ioos:station:TCOON:518:1,2016-11-03T09:12:00Z,29.5150,-94.5133,29.0,1111122 
TCOON,ioos:station:TCOON:518:1,2016-11-03T10:12:00Z,29.5150,-94.5133,27.3,1111122 
TCOON,ioos:station:TCOON:518:1,2016-11-03T11:12:00Z,29.5150,-94.5133,26.9,1111122 
TCOON,ioos:station:TCOON:518:1,2016-11-03T12:12:00Z,29.5150,-94.5133,26.4,1111122 
TCOON,ioos:station:TCOON:518:1,2016-11-03T13:12:00Z,29.5150,-94.5133,26.9,1111122 
TCOON,ioos:station:TCOON:518:1,2016-11-03T14:12:00Z,29.5150,-94.5133,27.5,1111122 
TCOON,ioos:station:TCOON:518:1,2016-11-03T15:12:00Z,29.5150,-94.5133,29.0,1111122 
TCOON,ioos:station:TCOON:518:1,2016-11-03T16:12:00Z,29.5150,-94.5133,29.7,1111122 
TCOON,ioos:station:TCOON:518:1,2016-11-03T17:12:00Z,29.5150,-94.5133,30.1,1111122 
TCOON,ioos:station:TCOON:518:1,2016-11-03T18:12:00Z,29.5150,-94.5133,30.0,1111122 
TCOON,ioos:station:TCOON:518:1,2016-11-03T19:12:00Z,29.5150,-94.5133,29.2,1111122 
TCOON,ioos:station:TCOON:518:1,2016-11-03T20:12:00Z,29.5150,-94.5133,29.2,1111122 
TCOON,ioos:station:TCOON:518:1,2016-11-03T21:12:00Z,29.5150,-94.5133,28.9,1111122 
TCOON,ioos:station:TCOON:518:1,2016-11-03T22:12:00Z,29.5150,-94.5133,28.8,1111122 
TCOON,ioos:station:TCOON:518:1,2016-11-03T23:12:00Z,29.5150,-94.5133,28.8,1111122 
TCOON,ioos:station:TCOON:518:1,2016-11-04T00:12:00Z,29.5150,-94.5133,28.8,1111122 
TCOON,ioos:station:TCOON:518:1,2016-11-04T01:12:00Z,29.5150,-94.5133,28.9,1111122 
TCOON,ioos:station:TCOON:518:1,2016-11-04T02:12:00Z,29.5150,-94.5133,28.2,1111122 
TCOON,ioos:station:TCOON:518:1,2016-11-04T03:12:00Z,29.5150,-94.5133,28.1,1111122 
TCOON,ioos:station:TCOON:518:1,2016-11-04T04:12:00Z,29.5150,-94.5133,28.1,1111122 
TCOON,ioos:station:TCOON:518:1,2016-11-04T05:12:00Z,29.5150,-94.5133,28.2,1111122 
TCOON,ioos:station:TCOON:518:1,2016-11-04T06:12:00Z,29.5150,-94.5133,27.3,1111122 
TCOON,ioos:station:TCOON:518:1,2016-11-04T07:12:00Z,29.5150,-94.5133,26.7,1111122 
TCOON,ioos:station:TCOON:518:1,2016-11-04T08:12:00Z,29.5150,-94.5133,26.7,1111122 
TCOON,ioos:station:TCOON:518:1,2016-11-04T09:12:00Z,29.5150,-94.5133,26.6,1111122 
TCOON,ioos:station:TCOON:518:1,2016-11-04T10:12:00Z,29.5150,-94.5133,26.0,1111122 
TCOON,ioos:station:TCOON:518:1,2016-11-04T11:12:00Z,29.5150,-94.5133,25.0,1111122 
TCOON,ioos:station:TCOON:518:1,2016-11-04T12:12:00Z,29.5150,-94.5133,25.1,1111122 
TCOON,ioos:station:TCOON:518:1,2016-11-04T13:12:00Z,29.5150,-94.5133,24.7,1111122 
TCOON,ioos:station:TCOON:518:1,2016-11-04T14:12:00Z,29.5150,-94.5133,25.4,1111122 
TCOON,ioos:station:TCOON:518:1,2016-11-04T15:12:00Z,29.5150,-94.5133,26.8,1111122 
TCOON,ioos:station:TCOON:518:1,2016-11-04T16:12:00Z,29.5150,-94.5133,28.3,1111122 
TCOON,ioos:station:TCOON:518:1,2016-11-04T17:12:00Z,29.5150,-94.5133,29.8,1111122 
TCOON,ioos:station:TCOON:518:1,2016-11-04T18:12:00Z,29.5150,-94.5133,29.6,1111122 
TCOON,ioos:station:TCOON:518:1,2016-11-04T19:12:00Z,29.5150,-94.5133,29.2,1111122 
TCOON,ioos:station:TCOON:518:1,2016-11-04T20:12:00Z,29.5150,-94.5133,29.6,1111122 
TCOON,ioos:station:TCOON:518:1,2016-11-04T21:12:00Z,29.5150,-94.5133,29.9,1111122 
TCOON,ioos:station:TCOON:518:1,2016-11-04T22:12:00Z,29.5150,-94.5133,29.8,1111122 
TCOON,ioos:station:TCOON:518:1,2016-11-04T23:12:00Z,29.5150,-94.5133,29.4,1111122 
TCOON,ioos:station:TCOON:518:1,2016-11-05T00:12:00Z,29.5150,-94.5133,28.1,1111122 
TCOON,ioos:station:TCOON:518:1,2016-11-05T01:12:00Z,29.5150,-94.5133,28.3,1111122 
TCOON,ioos:station:TCOON:518:1,2016-11-05T02:12:00Z,29.5150,-94.5133,28.7,1111122 
TCOON,ioos:station:TCOON:518:1,2016-11-05T03:12:00Z,29.5150,-94.5133,28.0,1111122 
TCOON,ioos:station:TCOON:518:1,2016-11-05T04:12:00Z,29.5150,-94.5133,28.4,1111122 
TCOON,ioos:station:TCOON:518:1,2016-11-05T05:12:00Z,29.5150,-94.5133,27.8,1111122 
TCOON,ioos:station:TCOON:518:1,2016-11-05T06:12:00Z,29.5150,-94.5133,26.9,1111122 
TCOON,ioos:station:TCOON:518:1,2016-11-05T07:12:00Z,29.5150,-94.5133,26.7,1111122 
TCOON,ioos:station:TCOON:518:1,2016-11-05T16:42:00Z,29.5150,-94.5133,26.6,1111122 
TCOON,ioos:station:TCOON:518:1,2016-11-05T17:12:00Z,29.5150,-94.5133,26.9,1111122 
TCOON,ioos:station:TCOON:518:1,2016-11-05T18:12:00Z,29.5150,-94.5133,26.8,1111122 
TCOON,ioos:station:TCOON:518:1,2016-11-05T19:12:00Z,29.5150,-94.5133,26.9,1111122 
TCOON,ioos:station:TCOON:518:1,2016-11-05T20:12:00Z,29.5150,-94.5133,26.9,1111122 
TCOON,ioos:station:TCOON:518:1,2016-11-05T21:12:00Z,29.5150,-94.5133,27.4,1111122 
TCOON,ioos:station:TCOON:518:1,2016-11-05T22:12:00Z,29.5150,-94.5133,27.6,1111122 
TCOON,ioos:station:TCOON:518:1,2016-11-05T23:12:00Z,29.5150,-94.5133,27.3,1111122 
TCOON,ioos:station:TCOON:518:1,2016-11-06T00:12:00Z,29.5150,-94.5133,27.1,1111122 
TCOON,ioos:station:TCOON:518:1,2016-11-06T01:12:00Z,29.5150,-94.5133,26.5,1111122 
TCOON,ioos:station:TCOON:518:1,2016-11-06T02:12:00Z,29.5150,-94.5133,25.8,1111122 
TCOON,ioos:station:TCOON:518:1,2016-11-07T18:18:00Z,29.5150,-94.5133,25.7,1111122 
TCOON,ioos:station:TCOON:518:1,2016-11-07T19:12:00Z,29.5150,-94.5133,26.3,1111122 
TCOON,ioos:station:TCOON:518:1,2016-11-07T20:12:00Z,29.5150,-94.5133,26.6,1111122 
TCOON,ioos:station:TCOON:518:1,2016-11-07T21:12:00Z,29.5150,-94.5133,26.2,1111122 
TCOON,ioos:station:TCOON:518:1,2016-11-07T22:12:00Z,29.5150,-94.5133,25.9,1111122 
TCOON,ioos:station:TCOON:518:1,2016-11-07T23:12:00Z,29.5150,-94.5133,25.8,1111122 
TCOON,ioos:station:TCOON:518:1,2016-11-08T00:12:00Z,29.5150,-94.5133,25.4,1111122 
TCOON,ioos:station:TCOON:518:1,2016-11-08T01:12:00Z,29.5150,-94.5133,24.9,1111122 
TCOON,ioos:station:TCOON:518:1,2016-11-08T02:12:00Z,29.5150,-94.5133,24.6,1111122 
TCOON,ioos:station:TCOON:518:1,2016-11-08T03:12:00Z,29.5150,-94.5133,24.3,1111122 
TCOON,ioos:station:TCOON:518:1,2016-11-08T04:12:00Z,29.5150,-94.5133,24.1,1111122 
TCOON,ioos:station:TCOON:518:1,2016-11-08T05:12:00Z,29.5150,-94.5133,23.9,1111122 
TCOON,ioos:station:TCOON:518:1,2016-11-09T18:12:00Z,29.5150,-94.5133,25.6,1111122 
TCOON,ioos:station:TCOON:518:1,2016-11-09T19:12:00Z,29.5150,-94.5133,26.1,1111122 
TCOON,ioos:station:TCOON:518:1,2016-11-09T20:12:00Z,29.5150,-94.5133,26.6,1111122 
TCOON,ioos:station:TCOON:518:1,2016-11-09T21:12:00Z,29.5150,-94.5133,27.0,1111122 
TCOON,ioos:station:TCOON:518:1,2016-11-09T22:12:00Z,29.5150,-94.5133,26.8,1111122 
TCOON,ioos:station:TCOON:518:1,2016-11-09T23:12:00Z,29.5150,-94.5133,26.3,1111122 
TCOON,ioos:station:TCOON:518:1,2016-11-10T00:12:00Z,29.5150,-94.5133,25.2,1111122 
TCOON,ioos:station:TCOON:518:1,2016-11-10T01:12:00Z,29.5150,-94.5133,24.4,1111122 
TCOON,ioos:station:TCOON:518:1,2016-11-10T16:48:00Z,29.5150,-94.5133,20.5,1111122 
TCOON,ioos:station:TCOON:518:1,2016-11-10T17:12:00Z,29.5150,-94.5133,20.8,1111122 
TCOON,ioos:station:TCOON:518:1,2016-11-10T18:18:00Z,29.5150,-94.5133,21.8,1111122 
TCOON,ioos:station:TCOON:518:1,2016-11-10T19:18:00Z,29.5150,-94.5133,22.4,1111122 
TCOON,ioos:station:TCOON:518:1,2016-11-10T20:24:00Z,29.5150,-94.5133,23.2,1111122 
TCOON,ioos:station:TCOON:518:1,2016-11-10T21:12:00Z,29.5150,-94.5133,23.6,1111122 
TCOON,ioos:station:TCOON:518:1,2016-11-10T22:12:00Z,29.5150,-94.5133,23.5,1111122 
TCOON,ioos:station:TCOON:518:1,2016-11-10T23:12:00Z,29.5150,-94.5133,23.2,1111122 
TCOON,ioos:station:TCOON:518:1,2016-11-11T00:12:00Z,29.5150,-94.5133,22.6,1111122 
TCOON,ioos:station:TCOON:518:1,2016-11-11T01:12:00Z,29.5150,-94.5133,21.8,1111122 
TCOON,ioos:station:TCOON:518:1,2016-11-11T02:12:00Z,29.5150,-94.5133,22.0,1111122 
TCOON,ioos:station:TCOON:518:1,2016-11-11T03:12:00Z,29.5150,-94.5133,22.5,1111122 
TCOON,ioos:station:TCOON:518:1,2016-11-11T04:12:00Z,29.5150,-94.5133,21.9,1111122 
TCOON,ioos:station:TCOON:518:1,2016-11-11T05:12:00Z,29.5150,-94.5133,21.2,1111122 
TCOON,ioos:station:TCOON:518:1,2016-11-11T06:12:00Z,29.5150,-94.5133,21.1,1111122 
TCOON,ioos:station:TCOON:518:1,2016-11-11T07:12:00Z,29.5150,-94.5133,21.1,1111122 
TCOON,ioos:station:TCOON:518:1,2016-11-11T08:12:00Z,29.5150,-94.5133,20.1,1111122 
TCOON,ioos:station:TCOON:518:1,2016-11-11T09:12:00Z,29.5150,-94.5133,20.2,1111122 
TCOON,ioos:station:TCOON:518:1,2016-11-11T10:12:00Z,29.5150,-94.5133,19.9,1111122 
TCOON,ioos:station:TCOON:518:1,2016-11-11T11:12:00Z,29.5150,-94.5133,19.6,1111122 
TCOON,ioos:station:TCOON:518:1,2016-11-11T12:12:00Z,29.5150,-94.5133,19.4,1111122 
TCOON,ioos:station:TCOON:518:1,2016-11-11T13:12:00Z,29.5150,-94.5133,20.0,1111122 
TCOON,ioos:station:TCOON:518:1,2016-11-11T14:12:00Z,29.5150,-94.5133,19.9,1111122 
TCOON,ioos:station:TCOON:518:1,2016-11-11T15:12:00Z,29.5150,-94.5133,20.1,1111122 
TCOON,ioos:station:TCOON:518:1,2016-11-11T16:12:00Z,29.5150,-94.5133,21.8,1111122 
TCOON,ioos:station:TCOON:518:1,2016-11-11T17:12:00Z,29.5150,-94.5133,23.6,1111122 
TCOON,ioos:station:TCOON:518:1,2016-11-11T18:12:00Z,29.5150,-94.5133,24.2,1111122 
TCOON,ioos:station:TCOON:518:1,2016-11-11T19:12:00Z,29.5150,-94.5133,24.6,1111122 
TCOON,ioos:station:TCOON:518:1,2016-11-11T20:12:00Z,29.5150,-94.5133,25.4,1111122 
TCOON,ioos:station:TCOON:518:1,2016-11-11T21:12:00Z,29.5150,-94.5133,25.9,1111122 
TCOON,ioos:station:TCOON:518:1,2016-11-11T22:12:00Z,29.5150,-94.5133,26.2,1111122 
TCOON,ioos:station:TCOON:518:1,2016-11-11T23:12:00Z,29.5150,-94.5133,25.7,1111122 
TCOON,ioos:station:TCOON:518:1,2016-11-12T00:12:00Z,29.5150,-94.5133,24.3,1111122 
TCOON,ioos:station:TCOON:518:1,2016-11-12T01:12:00Z,29.5150,-94.5133,24.2,1111122 
TCOON,ioos:station:TCOON:518:1,2016-11-12T02:12:00Z,29.5150,-94.5133,23.9,1111122 
TCOON,ioos:station:TCOON:518:1,2016-11-12T03:12:00Z,29.5150,-94.5133,22.9,1111122 
TCOON,ioos:station:TCOON:518:1,2016-11-12T04:12:00Z,29.5150,-94.5133,22.4,1111122 
TCOON,ioos:station:TCOON:518:1,2016-11-12T05:12:00Z,29.5150,-94.5133,23.1,1111122 
TCOON,ioos:station:TCOON:518:1,2016-11-12T06:12:00Z,29.5150,-94.5133,22.5,1111122 
TCOON,ioos:station:TCOON:518:1,2016-11-12T07:12:00Z,29.5150,-94.5133,22.4,1111122 
TCOON,ioos:station:TCOON:518:1,2016-11-12T08:12:00Z,29.5150,-94.5133,21.8,1111122 
TCOON,ioos:station:TCOON:518:1,2016-11-12T09:12:00Z,29.5150,-94.5133,21.9,1111122 
TCOON,ioos:station:TCOON:518:1,2016-11-12T10:12:00Z,29.5150,-94.5133,21.7,1111122 
TCOON,ioos:station:TCOON:518:1,2016-11-12T11:12:00Z,29.5150,-94.5133,20.8,1111122 
TCOON,ioos:station:TCOON:518:1,2016-11-12T12:12:00Z,29.5150,-94.5133,20.4,1111122 
TCOON,ioos:station:TCOON:518:1,2016-11-12T13:12:00Z,29.5150,-94.5133,20.2,1111122 
TCOON,ioos:station:TCOON:518:1,2016-11-12T14:12:00Z,29.5150,-94.5133,21.2,1111122 
TCOON,ioos:station:TCOON:518:1,2016-11-12T15:12:00Z,29.5150,-94.5133,21.9,1111122 
TCOON,ioos:station:TCOON:518:1,2016-11-12T16:12:00Z,29.5150,-94.5133,24.2,1111122 
TCOON,ioos:station:TCOON:518:1,2016-11-12T17:12:00Z,29.5150,-94.5133,26.1,1111122 
TCOON,ioos:station:TCOON:518:1,2016-11-12T18:12:00Z,29.5150,-94.5133,26.2,1111122 
TCOON,ioos:station:TCOON:518:1,2016-11-12T19:12:00Z,29.5150,-94.5133,26.2,1111122 
TCOON,ioos:station:TCOON:518:1,2016-11-12T20:12:00Z,29.5150,-94.5133,26.3,1111122 
TCOON,ioos:station:TCOON:518:1,2016-11-12T21:12:00Z,29.5150,-94.5133,25.9,1111122 
TCOON,ioos:station:TCOON:518:1,2016-11-12T22:12:00Z,29.5150,-94.5133,25.6,1111122 
TCOON,ioos:station:TCOON:518:1,2016-11-12T23:12:00Z,29.5150,-94.5133,25.6,1111122 
TCOON,ioos:station:TCOON:518:1,2016-11-13T00:12:00Z,29.5150,-94.5133,25.6,1111122 
TCOON,ioos:station:TCOON:518:1,2016-11-13T01:12:00Z,29.5150,-94.5133,24.8,1111122 
TCOON,ioos:station:TCOON:518:1,2016-11-13T02:12:00Z,29.5150,-94.5133,24.5,1111122 
TCOON,ioos:station:TCOON:518:1,2016-11-13T03:12:00Z,29.5150,-94.5133,23.2,1111122 
TCOON,ioos:station:TCOON:518:1,2016-11-13T04:12:00Z,29.5150,-94.5133,22.8,1111122 
TCOON,ioos:station:TCOON:518:1,2016-11-13T05:12:00Z,29.5150,-94.5133,22.7,1111122 
TCOON,ioos:station:TCOON:518:1,2016-11-13T06:12:00Z,29.5150,-94.5133,22.6,1111122 
TCOON,ioos:station:TCOON:518:1,2016-11-13T07:12:00Z,29.5150,-94.5133,21.8,1111122 
TCOON,ioos:station:TCOON:518:1,2016-11-13T08:12:00Z,29.5150,-94.5133,21.2,1111122 
TCOON,ioos:station:TCOON:518:1,2016-11-13T09:12:00Z,29.5150,-94.5133,20.7,1111122 
TCOON,ioos:station:TCOON:518:1,2016-11-13T10:12:00Z,29.5150,-94.5133,20.1,1111122 
TCOON,ioos:station:TCOON:518:1,2016-11-13T11:12:00Z,29.5150,-94.5133,20.0,1111122 
TCOON,ioos:station:TCOON:518:1,2016-11-13T12:12:00Z,29.5150,-94.5133,18.9,1111122 
TCOON,ioos:station:TCOON:518:1,2016-11-13T13:12:00Z,29.5150,-94.5133,18.9,1111122 
TCOON,ioos:station:TCOON:518:1,2016-11-13T14:12:00Z,29.5150,-94.5133,18.3,1111122 
TCOON,ioos:station:TCOON:518:1,2016-11-13T15:12:00Z,29.5150,-94.5133,18.8,1111122 
TCOON,ioos:station:TCOON:518:1,2016-11-13T16:12:00Z,29.5150,-94.5133,19.4,1111122 
TCOON,ioos:station:TCOON:518:1,2016-11-13T17:12:00Z,29.5150,-94.5133,20.2,1111122 
TCOON,ioos:station:TCOON:518:1,2016-11-13T18:12:00Z,29.5150,-94.5133,20.9,1111122 
TCOON,ioos:station:TCOON:518:1,2016-11-13T19:12:00Z,29.5150,-94.5133,21.7,1111122 
TCOON,ioos:station:TCOON:518:1,2016-11-13T20:12:00Z,29.5150,-94.5133,21.8,1111122 
TCOON,ioos:station:TCOON:518:1,2016-11-13T21:12:00Z,29.5150,-94.5133,22.0,1111122 
TCOON,ioos:station:TCOON:518:1,2016-11-13T22:12:00Z,29.5150,-94.5133,21.8,1111122 
TCOON,ioos:station:TCOON:518:1,2016-11-13T23:12:00Z,29.5150,-94.5133,21.3,1111122 
TCOON,ioos:station:TCOON:518:1,2016-11-14T00:12:00Z,29.5150,-94.5133,21.1,1111122 
TCOON,ioos:station:TCOON:518:1,2016-11-14T01:12:00Z,29.5150,-94.5133,20.7,1111122 
TCOON,ioos:station:TCOON:518:1,2016-11-14T02:12:00Z,29.5150,-94.5133,20.3,1111122 
TCOON,ioos:station:TCOON:518:1,2016-11-14T03:12:00Z,29.5150,-94.5133,19.2,1111122 
TCOON,ioos:station:TCOON:518:1,2016-11-14T04:12:00Z,29.5150,-94.5133,19.1,1111122 
TCOON,ioos:station:TCOON:518:1,2016-11-14T05:12:00Z,29.5150,-94.5133,19.4,1111122 
TCOON,ioos:station:TCOON:518:1,2016-11-14T06:12:00Z,29.5150,-94.5133,19.4,1111122 
TCOON,ioos:station:TCOON:518:1,2016-11-14T07:12:00Z,29.5150,-94.5133,19.2,1111122 
TCOON,ioos:station:TCOON:518:1,2016-11-14T08:12:00Z,29.5150,-94.5133,18.7,1111122 
TCOON,ioos:station:TCOON:518:1,2016-11-14T09:12:00Z,29.5150,-94.5133,18.6,1111122 
TCOON,ioos:station:TCOON:518:1,2016-11-14T10:12:00Z,29.5150,-94.5133,18.3,1111122 
TCOON,ioos:station:TCOON:518:1,2016-11-14T11:12:00Z,29.5150,-94.5133,18.7,1111122 
TCOON,ioos:station:TCOON:518:1,2016-11-14T12:24:00Z,29.5150,-94.5133,18.4,1111122 
TCOON,ioos:station:TCOON:518:1,2016-11-14T13:12:00Z,29.5150,-94.5133,18.8,1111122 
TCOON,ioos:station:TCOON:518:1,2016-11-14T14:12:00Z,29.5150,-94.5133,20.0,1111122 
TCOON,ioos:station:TCOON:518:1,2016-11-14T15:12:00Z,29.5150,-94.5133,21.5,1111122 
TCOON,ioos:station:TCOON:518:1,2016-11-14T16:12:00Z,29.5150,-94.5133,23.0,1111122 
TCOON,ioos:station:TCOON:518:1,2016-11-14T17:12:00Z,29.5150,-94.5133,23.7,1111122 
TCOON,ioos:station:TCOON:518:1,2016-11-14T18:12:00Z,29.5150,-94.5133,23.8,1111122 
TCOON,ioos:station:TCOON:518:1,2016-11-14T19:12:00Z,29.5150,-94.5133,23.9,1111122 
TCOON,ioos:station:TCOON:518:1,2016-11-14T20:12:00Z,29.5150,-94.5133,24.5,1111122 
TCOON,ioos:station:TCOON:518:1,2016-11-14T21:12:00Z,29.5150,-94.5133,24.6,1111122 
TCOON,ioos:station:TCOON:518:1,2016-11-14T22:12:00Z,29.5150,-94.5133,24.9,1111122 
TCOON,ioos:station:TCOON:518:1,2016-11-14T23:12:00Z,29.5150,-94.5133,24.2,1111122 
TCOON,ioos:station:TCOON:518:1,2016-11-15T00:12:00Z,29.5150,-94.5133,23.8,1111122 
TCOON,ioos:station:TCOON:518:1,2016-11-15T01:12:00Z,29.5150,-94.5133,23.8,1111122 
TCOON,ioos:station:TCOON:518:1,2016-11-15T02:12:00Z,29.5150,-94.5133,24.1,1111122 
TCOON,ioos:station:TCOON:518:1,2016-11-15T03:12:00Z,29.5150,-94.5133,24.5,1111122 
TCOON,ioos:station:TCOON:518:1,2016-11-15T04:12:00Z,29.5150,-94.5133,24.4,1111122 
TCOON,ioos:station:TCOON:518:1,2016-11-15T05:12:00Z,29.5150,-94.5133,24.3,1111122 
TCOON,ioos:station:TCOON:518:1,2016-11-15T06:12:00Z,29.5150,-94.5133,24.0,1111122 
TCOON,ioos:station:TCOON:518:1,2016-11-15T07:12:00Z,29.5150,-94.5133,23.4,1111122 
TCOON,ioos:station:TCOON:518:1,2016-11-15T08:12:00Z,29.5150,-94.5133,23.5,1111122 
TCOON,ioos:station:TCOON:518:1,2016-11-15T09:12:00Z,29.5150,-94.5133,23.3,1111122 
TCOON,ioos:station:TCOON:518:1,2016-11-15T10:12:00Z,29.5150,-94.5133,22.5,1111122 
TCOON,ioos:station:TCOON:518:1,2016-11-15T11:12:00Z,29.5150,-94.5133,22.0,1111122 
TCOON,ioos:station:TCOON:518:1,2016-11-15T12:12:00Z,29.5150,-94.5133,22.9,1111122 
TCOON,ioos:station:TCOON:518:1,2016-11-15T13:12:00Z,29.5150,-94.5133,22.9,1111122 
TCOON,ioos:station:TCOON:518:1,2016-11-15T14:12:00Z,29.5150,-94.5133,23.3,1111122 
TCOON,ioos:station:TCOON:518:1,2016-11-15T15:12:00Z,29.5150,-94.5133,22.8,1111122 
TCOON,ioos:station:TCOON:518:1,2016-11-15T16:12:00Z,29.5150,-94.5133,23.6,1111122 
TCOON,ioos:station:TCOON:518:1,2016-11-15T17:12:00Z,29.5150,-94.5133,24.8,1111122 
TCOON,ioos:station:TCOON:518:1,2016-11-15T18:12:00Z,29.5150,-94.5133,26.8,1111122 
TCOON,ioos:station:TCOON:518:1,2016-11-15T19:12:00Z,29.5150,-94.5133,27.2,1111122 
TCOON,ioos:station:TCOON:518:1,2016-11-15T20:12:00Z,29.5150,-94.5133,28.0,1111122 
TCOON,ioos:station:TCOON:518:1,2016-11-15T21:12:00Z,29.5150,-94.5133,28.5,1111122 
TCOON,ioos:station:TCOON:518:1,2016-11-15T22:12:00Z,29.5150,-94.5133,28.1,1111122 
TCOON,ioos:station:TCOON:518:1,2016-11-15T23:12:00Z,29.5150,-94.5133,28.3,1111122 
TCOON,ioos:station:TCOON:518:1,2016-11-16T00:12:00Z,29.5150,-94.5133,25.8,1111122 
TCOON,ioos:station:TCOON:518:1,2016-11-16T01:12:00Z,29.5150,-94.5133,25.4,1111122 
TCOON,ioos:station:TCOON:518:1,2016-11-16T02:12:00Z,29.5150,-94.5133,24.4,1111122 
TCOON,ioos:station:TCOON:518:1,2016-11-16T03:12:00Z,29.5150,-94.5133,23.1,1111122 
TCOON,ioos:station:TCOON:518:1,2016-11-16T04:12:00Z,29.5150,-94.5133,23.2,1111122 
TCOON,ioos:station:TCOON:518:1,2016-11-16T05:12:00Z,29.5150,-94.5133,21.9,1111122 
TCOON,ioos:station:TCOON:518:1,2016-11-16T06:12:00Z,29.5150,-94.5133,23.6,1111122 
TCOON,ioos:station:TCOON:518:1,2016-11-16T07:12:00Z,29.5150,-94.5133,23.9,1111122 
TCOON,ioos:station:TCOON:518:1,2016-11-16T08:12:00Z,29.5150,-94.5133,23.1,1111122 
TCOON,ioos:station:TCOON:518:1,2016-11-16T09:12:00Z,29.5150,-94.5133,22.4,1111122 
TCOON,ioos:station:TCOON:518:1,2016-11-16T10:12:00Z,29.5150,-94.5133,22.0,1111122 
TCOON,ioos:station:TCOON:518:1,2016-11-16T11:30:00Z,29.5150,-94.5133,22.2,1111122 
TCOON,ioos:station:TCOON:518:1,2016-11-16T12:18:00Z,29.5150,-94.5133,21.8,1111122 
TCOON,ioos:station:TCOON:518:1,2016-11-16T13:12:00Z,29.5150,-94.5133,22.5,1111122 
TCOON,ioos:station:TCOON:518:1,2016-11-16T14:12:00Z,29.5150,-94.5133,23.2,1111122 
TCOON,ioos:station:TCOON:518:1,2016-11-16T15:12:00Z,29.5150,-94.5133,24.7,1111122 
TCOON,ioos:station:TCOON:518:1,2016-11-16T16:12:00Z,29.5150,-94.5133,25.6,1111122 
TCOON,ioos:station:TCOON:518:1,2016-11-16T17:12:00Z,29.5150,-94.5133,26.1,1111122 
TCOON,ioos:station:TCOON:518:1,2016-11-16T18:12:00Z,29.5150,-94.5133,26.2,1111122 
TCOON,ioos:station:TCOON:518:1,2016-11-16T19:12:00Z,29.5150,-94.5133,26.5,1111122 
TCOON,ioos:station:TCOON:518:1,2016-11-16T20:12:00Z,29.5150,-94.5133,26.5,1111122 
TCOON,ioos:station:TCOON:518:1,2016-11-16T21:12:00Z,29.5150,-94.5133,26.7,1111122 
TCOON,ioos:station:TCOON:518:1,2016-11-16T22:12:00Z,29.5150,-94.5133,26.5,1111122 
TCOON,ioos:station:TCOON:518:1,2016-11-16T23:12:00Z,29.5150,-94.5133,25.6,1111122 
TCOON,ioos:station:TCOON:518:1,2016-11-17T00:12:00Z,29.5150,-94.5133,24.9,1111122 
TCOON,ioos:station:TCOON:518:1,2016-11-17T01:12:00Z,29.5150,-94.5133,24.7,1111122 
TCOON,ioos:station:TCOON:518:1,2016-11-17T02:12:00Z,29.5150,-94.5133,24.6,1111122 
TCOON,ioos:station:TCOON:518:1,2016-11-17T03:12:00Z,29.5150,-94.5133,24.6,1111122 
TCOON,ioos:station:TCOON:518:1,2016-11-17T04:12:00Z,29.5150,-94.5133,24.5,1111122 
TCOON,ioos:station:TCOON:518:1,2016-11-17T05:12:00Z,29.5150,-94.5133,24.6,1111122 
TCOON,ioos:station:TCOON:518:1,2016-11-17T06:12:00Z,29.5150,-94.5133,24.7,1111122 
TCOON,ioos:station:TCOON:518:1,2016-11-17T07:12:00Z,29.5150,-94.5133,25.2,1111122 
TCOON,ioos:station:TCOON:518:1,2016-11-17T08:12:00Z,29.5150,-94.5133,25.2,1111122 
TCOON,ioos:station:TCOON:518:1,2016-11-17T09:12:00Z,29.5150,-94.5133,25.1,1111122 
TCOON,ioos:station:TCOON:518:1,2016-11-17T10:12:00Z,29.5150,-94.5133,25.1,1111122 
TCOON,ioos:station:TCOON:518:1,2016-11-17T11:12:00Z,29.5150,-94.5133,25.0,1111122 
TCOON,ioos:station:TCOON:518:1,2016-11-17T12:12:00Z,29.5150,-94.5133,25.1,1111122 
TCOON,ioos:station:TCOON:518:1,2016-11-17T13:12:00Z,29.5150,-94.5133,25.4,1111122 
TCOON,ioos:station:TCOON:518:1,2016-11-17T14:12:00Z,29.5150,-94.5133,26.9,1111122 
TCOON,ioos:station:TCOON:518:1,2016-11-17T15:12:00Z,29.5150,-94.5133,27.2,1111122 
TCOON,ioos:station:TCOON:518:1,2016-11-17T16:12:00Z,29.5150,-94.5133,28.0,1111122 